Location: Unspecified
(0.0000°N, 0.0000°E)
Time: 14:27:25
(UTC+00:00)

AAUSAT3 - Pass Details

Date: 04 August 2024
Orbit: 756 x 773 km, 98.4° (Epoch: 17 September)

Event Time Altitude Azimuth Distance (km) Brightness Sun altitude
Rises 05:01:28 0° 132° (SE) 3,238 ? -15.4°
Reaches altitude 10° 05:04:59 10° 107° (ESE) 2,305 ? -14.6°
Maximum altitude 05:07:27 14° 78° (ENE) 2,052 ? -14.0°
Drops below altitude 10° 05:09:55 10° 48° (NE) 2,294 ? -13.4°
Sets 05:13:23 0° 23° (NNE) 3,212 ? -12.6°
